GEFSMA_500_meanwind_000.txt.gz
Wind_Speed
53 53 52 51 50 49 49 47 47 48 47 46 45 46 45 43 43 43 42 41 39 38 37 33 31 32 33 32 32 30 29 27 26 25 24 23 21 20 18 18 18 18 19
56 56 57 56 54 53 51 51 51 50 52 51 50 49 48 46 45 44 43 42 41 40 39 37 34 34 34 35 35 34 33 32 31 30 29 28 27 26 24 23 22 22 22
59 58 57 57 57 56 55 54 54 53 53 54 53 53 52 51 49 48 47 45 44 43 43 41 39 37 37 37 37 38 37 36 35 34 34 33 32 31 29 28 26 25 24
62 62 60 59 58 57 57 56 56 56 55 55 55 54 54 53 53 52 51 50 49 48 47 45 44 42 41 40 39 39 39 39 38 38 37 36 35 33 32 30 29 28 27
64 64 64 65 65 63 61 59 57 57 57 57 58 57 56 54 54 54 53 52 52 51 50 48 47 46 44 44 43 43 43 42 41 41 40 39 37 36 35 34 33 32 31
66 66 65 65 66 66 65 65 62 60 59 58 60 60 60 59 58 56 55 54 53 52 50 49 47 45 43 42 41 41 41 41 41 40 39 37 36 35 34 34 33 34 34
75 75 73 72 71 70 68 67 67 66 63 61 62 63 64 63 62 61 59 58 56 54 53 52 50 48 47 45 44 43 41 41 41 41 40 40 38 38 38 38 38 37 36
82 82 82 80 78 77 75 72 70 69 68 65 64 65 67 67 66 64 63 62 60 59 58 57 55 53 51 50 49 47 46 45 43 43 44 43 42 42 43 42 42 41 39
85 86 88 87 84 81 79 77 75 74 72 69 67 66 67 69 69 68 67 66 65 64 63 62 60 59 57 55 53 52 51 50 48 47 47 45 45 45 46 45 43 42 42
87 88 89 90 91 86 82 81 80 78 77 73 70 68 67 68 69 69 70 70 69 69 68 67 65 63 62 61 59 57 56 56 54 51 50 48 48 48 48 45 44 43 43
75 77 82 84 86 85 84 85 86 84 82 80 77 74 72 70 70 68 68 69 70 70 70 70 70 69 66 65 65 62 60 60 59 57 55 53 51 49 49 47 44 44 46
48 51 56 61 66 70 75 79 82 84 84 83 81 79 77 75 72 72 71 69 69 69 69 69 69 70 69 68 68 66 64 63 62 60 58 56 55 53 52 50 48 48 49
32 34 36 38 41 47 55 63 71 79 83 84 82 80 78 77 76 77 77 75 71 70 69 67 66 67 68 70 70 70 69 67 63 61 59 56 55 54 54 53 51 49 50
25 27 30 32 33 36 41 47 55 64 72 78 83 82 81 78 75 77 80 80 77 75 72 70 67 65 66 70 71 71 71 68 65 61 58 56 53 50 50 50 51 50 49
22 24 28 31 33 35 37 40 45 51 57 63 71 75 80 77 73 74 78 80 81 80 77 74 72 69 67 68 71 69 69 68 68 65 63 61 56 54 55 55 54 52 51
24 25 27 30 32 35 39 41 41 45 51 54 59 61 65 68 69 69 69 71 74 77 77 77 75 73 72 71 71 75 75 73 69 67 69 68 65 65 62 62 61 60 60
28 30 31 32 33 36 38 39 37 39 47 54 57 64 65 56 59 62 65 69 70 70 73 76 76 75 74 75 75 75 78 77 74 71 70 71 69 68 68 68 67 66 65
33 34 36 36 36 38 38 38 39 42 43 45 53 59 68 61 56 57 60 67 69 63 68 75 76 74 72 74 75 75 76 75 74 73 72 72 70 69 69 70 70 70 69
40 39 39 39 38 38 38 39 40 41 36 31 40 52 61 64 58 48 50 59 65 60 60 67 68 68 67 69 70 71 72 73 72 71 70 69 68 68 68 68 69 70 70
44 42 41 40 39 37 37 36 36 35 32 29 36 45 46 50 58 52 48 50 53 54 49 52 54 57 60 59 61 64 66 67 67 67 67 66 66 66 66 67 70 71 70
46 43 41 40 38 36 33 31 30 25 27 26 23 38 36 44 51 47 46 48 49 47 46 50 53 54 55 56 58 59 62 62 63 64 64 65 65 65 66 68 69 69 67
46 43 41 38 37 35 32 29 25 24 20 19 20 31 33 36 45 47 43 43 44 43 43 45 52 56 55 56 56 56 56 57 60 63 63 65 66 66 65 64 63 62 60
43 41 38 37 36 34 32 30 27 36 31 26 25 31 31 29 37 44 42 40 41 37 38 45 48 54 58 59 57 56 55 54 53 53 57 59 60 60 60 59 60 61 62
38 39 37 36 36 35 33 32 31 34 41 38 35 33 34 30 27 34 38 40 44 44 42 45 45 50 56 56 53 51 49 48 47 49 51 51 51 53 54 54 54 55 56
30 34 37 37 37 36 36 36 36 35 36 39 42 41 39 35 32 34 37 42 43 41 43 46 45 47 50 50 54 55 52 50 49 48 49 51 52 52 53 55 57 56 54
26 26 32 37 39 39 40 40 41 39 38 38 40 43 45 44 43 42 42 44 47 46 45 48 49 48 48 49 49 50 51 51 49 47 47 49 51 52 53 53 54 56 56

GEFSMA_500_meanwind_006.txt.gz
Wind_Speed
66 65 63 61 61 61 60 58 57 57 57 57 56 54 53 52 53 54 54 53 52 51 50 47 45 42 38 38 40 40 38 37 34 33 30 28 27 26 25 24 24 23 22
72 70 69 67 66 64 64 63 62 61 60 59 58 56 54 55 55 55 55 55 54 53 52 50 48 45 42 39 41 42 42 41 38 36 34 32 29 27 25 24 23 23 22
79 76 73 72 71 70 68 67 66 65 65 64 61 59 56 55 56 56 56 55 55 55 54 53 51 48 45 43 42 44 45 46 43 40 38 36 33 31 28 26 24 23 22
82 81 79 76 75 74 72 71 70 69 69 68 67 64 61 58 57 58 57 56 56 56 56 55 54 52 49 47 46 45 44 47 49 45 42 39 37 34 32 30 28 26 25
84 84 84 82 79 77 76 74 72 71 71 71 70 69 66 63 61 61 60 58 57 56 57 57 56 55 53 51 50 49 47 45 51 50 47 43 41 38 36 34 32 30 28
86 90 87 85 84 82 80 79 77 74 72 72 72 71 69 67 65 64 63 62 61 59 58 58 59 58 56 54 53 51 50 49 47 51 51 47 45 42 40 38 35 33 32
66 79 92 92 89 87 85 83 82 79 76 74 73 72 71 69 67 67 66 65 64 63 62 61 60 59 58 57 55 54 53 52 49 46 47 49 47 45 43 41 39 37 35
51 58 70 87 94 93 90 88 85 83 81 78 75 74 72 70 69 68 67 67 66 66 65 64 63 62 61 59 58 57 56 55 53 50 46 44 45 45 45 45 43 40 39
47 48 54 67 82 94 96 94 90 87 83 81 79 77 75 74 71 70 68 68 68 68 68 68 67 66 65 64 62 61 60 59 57 53 50 47 45 43 44 45 45 43 41
46 47 47 51 64 78 90 96 96 92 88 84 82 80 78 76 74 73 71 70 68 68 68 69 70 69 68 67 65 64 64 63 61 58 55 53 50 48 45 43 42 43 42
44 44 43 43 48 60 73 86 94 95 92 89 86 85 82 79 77 75 74 72 70 69 69 69 69 70 70 70 68 67 65 65 64 62 60 57 55 52 49 46 43 41 42
41 41 40 39 39 44 53 64 76 86 91 90 88 87 87 85 81 79 76 74 72 71 71 70 70 70 70 70 71 70 68 67 65 63 61 59 57 55 52 49 46 45 44
40 37 37 36 35 36 40 47 54 64 76 84 86 86 87 88 87 84 82 78 75 74 74 73 73 72 71 71 70 70 69 68 66 64 63 61 59 57 55 53 50 49 48
41 36 34 34 33 33 34 38 43 50 58 69 77 82 83 84 86 86 85 83 81 78 76 74 74 74 74 73 72 71 69 68 67 65 64 62 61 60 58 57 55 53 50
42 38 34 33 32 33 33 34 37 41 47 53 62 70 76 79 82 84 86 86 84 82 81 78 76 75 75 75 74 73 72 71 68 66 65 64 62 61 61 61 59 58 55
42 40 38 35 33 33 34 34 34 36 39 42 47 54 61 68 74 79 82 84 85 84 83 81 80 76 75 75 74 74 74 74 73 71 69 68 66 64 64 64 62 61 59
44 41 40 39 36 35 35 35 34 34 36 37 39 42 46 51 58 66 74 79 82 84 83 83 83 80 77 77 75 74 74 74 74 73 73 72 71 69 68 67 66 64 62
43 41 40 41 42 40 38 37 35 34 35 37 39 40 41 43 47 53 61 70 77 81 83 83 85 84 81 79 78 77 75 74 74 74 73 72 71 70 69 67 66 66 64
40 38 38 39 43 45 43 40 38 36 36 38 41 42 42 42 43 46 51 58 67 75 79 81 82 85 83 80 78 78 79 77 75 73 72 71 70 70 71 71 70 70 68
37 34 34 35 40 46 47 45 43 40 39 40 43 44 44 44 44 45 47 50 55 62 69 73 74 79 82 80 77 75 78 80 78 76 74 72 70 70 71 72 73 74 73
34 30 29 31 34 41 47 47 46 44 43 42 43 44 45 46 45 46 48 50 52 55 59 63 64 68 75 76 76 74 74 76 77 77 76 74 70 69 70 71 72 74 74
34 29 25 26 29 35 42 46 47 45 44 43 43 43 43 44 44 43 44 45 48 52 56 60 62 64 68 69 70 71 71 74 75 78 77 76 75 73 72 72 71 72 74
35 30 25 23 25 30 35 41 44 43 43 42 42 41 40 40 39 38 38 39 43 51 54 53 55 57 60 65 67 67 68 70 71 72 73 74 75 75 76 76 75 74 74
36 30 26 22 22 26 31 35 39 40 40 40 40 40 38 36 35 36 38 41 43 50 54 54 56 56 56 56 60 63 64 65 67 68 69 69 69 70 72 73 74 74 74
37 30 25 21 20 23 28 32 36 39 41 42 42 41 39 37 38 41 42 42 45 50 54 56 56 55 55 57 58 59 61 60 62 64 65 65 65 66 67 69 70 71 72
35 28 23 20 19 21 26 31 34 38 42 43 44 44 43 41 41 43 43 42 44 48 53 54 54 53 53 54 56 58 60 59 58 58 58 59 60 61 62 63 65 68 69

GEFSMA_500_meanwind_012.txt.gz
Wind_Speed
85 81 78 76 76 75 75 76 76 74 71 69 68 67 65 64 66 67 67 64 63 60 58 56 54 52 51 48 46 45 43 40 39 36 34 34 34 34 33 34 35 35 35
87 84 80 78 77 77 77 77 77 78 76 74 72 71 70 67 66 66 68 67 66 64 62 60 58 56 54 52 49 48 46 44 42 40 37 37 37 35 34 34 33 34 35
74 72 71 71 73 74 76 77 79 79 79 78 77 75 73 72 69 67 68 68 67 66 65 63 60 58 56 54 53 52 49 47 44 43 41 40 40 39 37 36 35 34 33
58 58 58 60 63 66 69 72 77 80 81 81 81 79 78 76 75 71 68 68 68 66 65 65 63 60 59 57 56 55 53 50 47 45 44 43 44 43 41 39 38 36 35
54 53 53 53 55 59 62 66 71 77 82 84 84 83 82 80 79 77 74 71 69 67 64 64 64 63 61 60 58 57 56 53 49 47 47 46 48 48 44 41 39 38 37
56 55 54 53 54 54 55 58 63 71 80 86 88 87 86 84 83 81 79 76 73 70 66 63 64 64 63 62 61 60 58 55 52 50 50 49 47 49 46 43 41 39 37
60 59 57 56 55 54 53 51 53 60 72 85 90 91 89 87 86 85 83 80 76 71 69 65 64 65 65 64 63 62 60 57 55 53 52 52 46 44 48 46 44 41 40
60 60 59 58 57 57 55 53 50 50 55 70 86 94 93 91 90 87 86 84 80 76 73 69 66 64 65 65 64 63 62 59 57 55 55 52 50 45 46 49 46 44 43
50 53 55 56 57 58 59 57 54 50 48 52 67 87 96 95 92 90 88 86 83 80 77 73 69 66 66 66 65 64 63 61 60 58 57 56 52 49 42 48 50 48 47
43 44 46 48 52 55 58 60 59 55 51 48 51 67 87 97 96 92 89 88 85 82 79 77 74 70 68 68 67 66 65 64 62 60 59 58 56 50 46 44 51 52 50
44 44 44 43 45 48 53 57 59 58 54 50 48 52 68 89 97 96 91 89 87 83 79 76 76 74 71 69 69 68 67 65 64 63 62 60 59 54 49 45 49 55 54
45 44 44 44 43 43 46 51 56 57 56 53 50 49 55 73 90 97 95 90 88 84 80 76 74 75 74 71 71 71 69 68 66 65 63 62 59 58 52 50 46 52 56
43 43 43 43 44 44 43 46 50 54 55 53 51 49 50 60 78 93 97 93 89 85 81 78 75 74 74 73 73 73 72 71 69 67 65 62 60 57 55 51 50 48 52
45 45 44 43 42 42 43 43 46 50 52 52 50 47 47 52 66 84 95 96 92 88 84 79 76 74 73 73 74 75 74 72 71 70 67 64 61 59 56 54 51 50 48
46 46 45 43 41 39 40 41 43 45 48 49 47 45 44 46 55 71 88 96 96 92 87 83 78 75 73 69 70 74 75 73 72 71 69 66 63 61 58 56 54 51 48
48 47 46 43 40 38 37 38 40 42 45 46 44 42 40 42 46 57 75 90 96 95 91 86 82 79 76 71 67 68 72 72 72 72 71 68 65 62 60 59 57 54 52
50 48 46 44 40 36 35 35 36 38 41 43 41 39 38 38 41 47 60 77 89 94 93 88 85 82 79 76 71 66 67 68 67 69 70 69 67 65 63 61 60 58 56
52 50 48 44 40 35 32 32 32 34 38 40 39 38 36 36 37 40 48 62 77 88 91 90 87 84 82 80 77 71 68 67 65 65 66 67 67 66 65 64 62 61 59
54 53 50 45 38 33 30 29 28 29 34 37 37 37 35 35 35 36 42 51 64 76 85 87 86 85 83 82 79 76 72 69 67 64 63 64 65 65 65 65 64 62 60
58 55 50 42 35 29 27 26 25 25 30 34 36 36 35 34 34 35 38 44 53 64 74 80 82 82 82 82 80 76 74 71 68 65 63 62 62 63 64 64 63 62 61
61 55 45 35 28 24 23 23 22 23 28 33 35 36 36 35 35 35 36 39 46 54 62 69 74 76 78 80 79 76 73 70 67 66 64 63 62 61 62 62 63 63 62
59 48 36 25 19 18 19 19 19 21 26 32 34 35 35 35 35 36 36 37 40 46 53 60 65 69 72 75 76 75 72 70 68 66 64 64 63 62 60 59 59 60 61
55 40 25 14 11 13 15 15 16 18 24 31 34 35 35 36 36 36 36 37 38 40 46 51 57 63 67 70 71 71 71 69 67 66 65 64 63 62 61 59 58 58 58
50 33 19 7 6 10 12 12 14 16 22 29 34 35 35 35 36 37 37 37 38 39 41 45 49 53 58 63 66 68 68 67 65 64 65 63 62 62 61 60 59 58 58
47 31 16 5 4 8 10 11 12 15 21 28 34 36 36 36 36 37 38 38 39 39 40 41 43 47 51 55 59 62 64 64 64 64 63 62 62 62 62 62 62 61 60
48 32 17 6 2 7 9 11 11 15 20 27 34 37 38 37 37 37 37 38 39 39 39 38 38 40 43 48 53 57 59 59 59 60 61 62 63 63 63 63 63 63 63

GEFSMA_500_meanwind_018.txt.gz
Wind_Speed
98 96 93 92 91 91 90 89 88 86 84 82 80 78 78 77 76 74 72 70 70 69 67 65 63 62 61 61 60 59 58 55 52 48 46 43 41 39 38 37 36 37 39
83 82 81 80 80 82 84 85 85 85 85 84 84 82 81 81 80 78 76 74 72 72 72 69 67 65 63 61 60 60 59 58 55 52 49 46 43 41 39 37 37 37 38
69 69 69 70 71 72 74 76 78 80 81 82 83 85 85 84 83 82 80 79 76 74 75 74 72 70 67 63 62 60 58 58 57 55 52 49 46 44 41 39 38 38 38
67 66 64 64 65 66 68 69 70 72 75 78 81 85 87 87 87 86 85 83 81 79 77 77 77 75 73 69 65 63 60 57 55 55 53 51 49 46 44 41 39 38 39
66 64 62 60 60 61 63 66 67 67 69 72 76 81 86 89 91 91 89 87 85 83 80 79 79 79 77 73 70 67 66 63 57 55 51 50 50 49 46 43 41 40 39
61 59 58 56 56 56 58 61 65 68 67 68 70 76 82 88 92 94 93 91 90 88 85 82 80 80 80 77 74 71 70 68 63 58 54 50 49 50 49 46 44 42 40
56 54 53 52 52 53 54 55 59 65 68 68 68 70 75 83 90 95 96 95 93 91 89 86 82 80 80 79 77 75 73 71 68 63 59 55 51 49 50 48 46 44 43
51 50 48 48 47 48 50 52 54 58 65 69 69 68 70 74 83 90 96 98 96 94 93 90 86 82 79 78 79 77 76 75 72 68 64 60 56 51 49 49 48 46 44
48 47 46 45 44 44 44 46 49 52 56 64 70 70 69 70 73 81 90 97 98 97 96 93 90 85 81 77 77 77 76 78 76 72 68 64 61 57 53 49 48 47 46
50 49 47 46 44 43 42 42 44 48 51 56 64 70 71 70 69 73 81 90 97 99 98 95 93 89 85 80 76 76 75 77 78 76 72 67 64 61 59 54 49 48 47
54 53 51 49 48 46 44 43 41 43 46 50 56 65 72 72 71 70 73 83 92 97 99 97 94 92 89 84 80 76 73 75 78 78 75 70 67 65 62 58 54 50 49
55 56 55 53 51 48 46 45 43 42 42 46 50 58 67 73 74 71 69 74 85 94 99 99 96 93 92 88 83 79 75 71 74 77 77 73 70 66 64 61 57 53 50
57 57 56 55 53 50 48 46 45 43 42 43 46 52 60 69 74 73 70 68 75 87 96 100 100 97 94 91 86 81 79 72 71 75 77 76 72 68 65 63 60 56 53
61 60 58 56 54 52 49 47 45 43 41 41 43 48 54 63 71 74 72 68 68 76 89 98 102 100 98 95 91 85 81 77 72 72 75 76 74 70 66 63 61 59 56
65 64 61 58 55 52 49 46 44 42 40 39 41 45 49 56 65 72 73 71 66 67 79 92 101 102 100 98 95 89 83 78 75 72 73 75 74 71 68 65 61 60 58
70 68 64 58 53 50 47 44 42 39 37 37 38 41 46 51 59 67 72 72 67 64 67 80 95 102 101 98 95 91 87 82 78 76 74 74 74 72 69 67 63 60 57
73 67 59 50 43 39 39 38 39 36 33 33 35 37 42 47 53 61 68 71 68 62 60 67 82 97 100 97 93 92 89 86 81 78 76 75 74 72 70 68 66 63 60
70 60 48 36 27 20 20 24 29 29 28 29 31 34 38 43 48 55 63 68 68 64 58 59 71 85 96 95 91 90 89 87 85 81 78 75 74 73 70 68 67 65 63
63 49 36 24 18 10 4 9 15 19 22 24 27 30 34 39 44 49 57 63 65 64 59 56 62 74 86 89 86 85 87 88 86 84 81 76 74 73 71 69 67 65 64
57 40 27 22 20 14 7 2 5 10 15 19 23 27 30 35 39 44 51 57 61 61 60 56 57 66 78 83 82 81 83 86 85 84 83 79 76 74 71 70 67 65 64
53 34 21 17 17 16 11 7 2 4 10 15 19 24 27 31 35 39 45 51 55 56 57 56 56 63 74 81 81 79 79 82 84 83 82 81 78 75 73 71 69 66 65
52 33 18 11 11 12 8 5 2 2 6 11 17 22 25 29 32 35 40 45 49 50 52 53 54 61 72 81 82 80 78 80 82 81 80 80 80 77 74 72 69 67 66
55 37 20 9 4 4 3 4 3 1 5 10 16 21 25 28 31 33 36 39 42 43 45 47 51 58 70 84 84 80 78 79 80 81 80 78 78 76 74 72 70 68 67
61 44 28 16 7 4 5 6 6 3 4 10 16 21 25 28 30 32 33 35 36 37 38 40 44 52 66 83 90 83 77 76 77 80 80 77 76 75 73 71 69 67 67
66 53 36 24 16 11 9 8 7 4 4 10 17 22 26 29 30 31 32 32 32 33 34 35 38 45 58 77 93 92 82 76 76 78 79 76 74 72 71 69 67 66 65
69 61 47 32 23 17 12 9 7 4 4 9 16 22 27 29 30 31 30 29 29 29 30 31 34 39 48 65 86 95 91 82 78 77 77 74 70 69 69 68 64 63 62

GEFSMA_500_meanwind_024.txt.gz
Wind_Speed
88 84 81 79 78 77 77 77 78 79 82 87 90 92 93 93 91 89 88 87 85 83 80 77 74 73 71 70 69 67 64 61 59 56 53 50 48 45 44 42 40 39 37
81 78 76 75 74 72 72 71 72 73 74 77 80 84 88 90 92 92 92 92 90 88 86 82 79 76 74 72 71 69 67 65 62 60 57 54 51 49 47 45 42 41 40
78 76 73 70 68 66 64 63 63 65 68 71 74 77 81 85 88 92 95 96 95 93 91 88 84 80 77 75 72 71 69 67 65 63 61 59 56 53 50 48 45 44 42
75 71 67 63 59 56 53 52 53 55 58 63 68 72 75 80 85 91 96 99 100 98 96 92 89 85 81 78 75 73 70 68 67 65 64 63 61 58 55 52 49 47 45
71 65 60 56 52 50 49 48 47 48 50 54 60 66 71 76 82 90 96 100 103 103 100 97 93 90 85 81 78 76 72 68 67 66 66 66 64 62 59 56 53 50 48
66 60 56 53 52 51 50 50 49 48 48 48 51 57 64 72 79 86 95 102 106 106 104 101 98 94 90 86 82 79 75 71 66 66 65 66 67 65 63 61 58 55 52
63 59 56 54 55 55 55 55 54 51 50 49 48 49 55 65 74 82 91 100 106 109 108 105 102 98 95 90 86 82 79 75 69 65 65 65 66 66 65 64 62 59 56
62 59 58 58 59 60 60 61 60 57 54 53 50 47 48 56 67 77 86 95 103 109 111 109 106 102 98 94 90 86 83 78 74 68 64 64 64 66 67 65 63 62 60
61 61 62 63 65 66 66 65 64 62 58 56 54 51 48 50 59 68 80 90 98 104 110 112 109 105 102 98 94 90 86 83 79 74 67 65 65 65 65 65 63 61 63
62 64 67 69 71 72 72 70 68 65 62 57 56 54 51 48 53 61 71 84 92 98 104 110 111 109 105 102 98 94 91 87 83 80 74 67 65 65 64 64 62 61 63
65 69 72 75 76 76 74 72 69 67 63 59 55 54 52 50 49 56 63 75 86 92 98 105 111 111 108 104 101 98 94 91 87 84 82 75 70 65 64 63 61 57 59
69 73 75 74 71 67 64 62 61 60 59 56 53 52 51 50 50 51 57 66 79 87 91 98 106 111 110 107 104 100 97 93 90 86 84 82 77 68 64 62 57 56 56
74 76 73 68 62 55 50 46 45 46 49 50 49 49 48 48 48 49 52 60 71 82 87 90 97 107 111 110 106 103 100 96 92 87 84 84 84 76 67 64 58 56 52
78 76 71 64 55 48 40 33 28 29 34 39 42 43 44 45 46 47 49 55 65 76 84 85 88 98 109 110 107 104 102 98 94 88 83 82 83 82 75 68 63 58 54
79 75 67 57 48 42 35 27 18 14 20 27 33 37 39 42 43 45 47 50 59 70 79 82 83 89 102 108 108 105 103 99 95 91 86 81 80 80 78 74 67 62 58
77 71 61 50 43 39 33 26 18 8 6 15 23 28 33 37 39 41 44 47 53 65 73 79 79 82 91 103 107 105 103 101 97 93 87 82 79 77 77 76 73 66 63
75 68 56 46 40 36 32 27 22 13 4 6 14 21 27 31 34 37 40 44 49 59 68 75 77 77 83 94 104 105 103 101 98 94 89 84 78 76 75 75 74 70 65
74 66 52 42 37 33 29 24 21 15 7 0 8 15 21 26 29 32 36 40 45 54 64 69 74 74 76 85 96 103 103 100 98 95 91 85 80 76 74 74 73 72 68
73 65 51 39 33 30 27 23 18 13 7 3 7 13 17 20 24 27 31 36 41 49 59 65 71 72 71 76 87 98 102 99 97 95 92 88 82 77 75 73 73 72 69
73 67 55 40 32 28 24 21 18 14 9 6 8 11 14 17 20 23 27 31 37 44 54 61 67 69 68 70 78 90 100 100 97 94 92 89 84 80 76 72 71 71 69
73 69 60 45 34 28 24 21 18 15 11 7 7 8 10 12 15 19 23 28 33 41 49 57 64 66 65 65 69 81 93 99 98 93 91 88 83 79 76 72 70 70 69
72 71 65 53 40 31 26 22 19 16 12 8 6 6 7 9 13 16 19 24 30 37 46 54 61 63 62 61 63 70 83 94 97 94 91 87 82 78 76 73 71 69 67
71 71 68 61 48 37 29 24 19 16 12 8 5 3 5 9 12 15 17 21 27 34 42 51 58 60 60 57 57 62 73 86 93 94 92 87 83 79 75 73 72 69 65
68 70 70 65 56 45 35 28 23 17 13 8 3 2 6 9 12 15 17 21 25 31 39 46 53 57 57 55 54 57 64 75 85 89 90 86 83 80 77 74 71 69 67
66 68 69 68 62 52 42 33 27 21 15 9 4 3 8 11 13 16 18 21 24 29 36 43 50 54 55 53 51 54 59 67 74 82 85 84 83 79 76 74 72 70 68
64 66 67 68 66 59 49 39 31 24 18 11 5 4 9 12 14 17 19 21 24 28 34 40 46 51 53 52 49 50 55 61 68 75 80 81 80 76 75 74 72 70 69

GEFSMA_500_meanwind_030.txt.gz
Wind_Speed
102 103 102 99 97 94 91 89 87 85 84 83 83 84 84 86 89 93 97 102 105 105 104 102 99 95 91 86 82 80 78 74 70 68 64 61 58 55 54 52 50 49 47
101 99 95 91 87 85 83 82 81 80 78 77 77 77 78 79 82 86 92 97 103 107 109 107 105 101 97 92 87 84 81 79 75 72 69 65 63 60 57 54 52 50 49
96 91 87 84 82 81 80 78 76 74 72 71 70 70 71 72 75 80 86 92 98 105 110 111 110 107 103 98 93 88 85 82 80 76 73 69 67 64 60 57 55 52 50
88 84 82 81 79 77 74 72 69 67 66 65 65 65 65 65 68 73 79 86 93 101 107 113 114 111 108 104 99 93 89 85 83 80 77 74 70 67 64 61 58 55 52
82 80 80 78 76 73 71 70 68 66 64 63 63 63 63 62 63 66 72 81 88 96 103 110 115 115 113 109 104 99 93 89 86 84 81 78 74 70 68 65 61 58 55
79 78 77 75 73 72 72 72 71 70 69 67 65 64 63 62 62 63 65 73 83 91 99 107 114 117 117 114 109 104 98 93 89 87 84 81 78 74 71 68 64 61 58
77 77 75 73 73 74 74 73 72 71 71 72 71 68 66 65 64 64 63 65 74 86 95 103 112 117 119 117 113 109 103 98 93 90 87 84 82 78 74 70 67 63 60
77 76 74 74 74 75 73 70 69 67 67 69 72 73 71 69 70 67 64 64 67 76 89 99 108 115 120 120 117 113 108 102 97 93 90 87 85 81 77 73 69 66 62
76 75 74 74 76 74 69 65 61 58 55 56 63 69 74 75 73 69 68 65 65 68 79 93 103 112 118 121 119 116 112 107 101 96 93 89 87 85 81 77 72 69 66
75 74 74 75 74 70 64 58 54 50 46 43 46 54 64 72 75 73 71 68 65 65 70 83 97 108 116 120 120 118 115 110 105 100 96 92 89 87 83 79 76 72 69
74 73 74 74 71 65 57 52 49 44 39 33 31 36 47 60 69 73 71 70 67 65 65 73 88 101 112 118 120 119 117 113 109 104 99 95 91 88 84 80 78 74 71
72 72 73 72 67 58 51 46 43 39 35 29 22 20 29 43 57 67 69 68 68 66 64 66 78 93 105 115 119 120 118 115 111 107 102 97 93 89 85 82 79 76 72
70 71 73 70 63 52 45 40 37 35 33 29 22 13 14 26 41 55 63 65 65 64 64 63 70 85 98 109 116 119 118 116 113 109 104 100 95 90 86 82 79 77 75
70 71 72 69 60 49 40 35 31 29 28 26 21 15 7 13 27 41 52 59 61 62 62 63 65 76 91 102 110 116 117 116 114 111 106 102 97 91 87 83 79 77 75
69 70 72 69 60 49 39 33 28 25 23 21 18 14 8 6 16 29 41 50 55 58 60 62 63 70 83 95 103 110 116 116 115 112 108 104 99 94 89 84 79 76 75
68 69 72 69 60 50 39 31 27 23 20 17 15 11 8 6 11 21 31 41 49 54 56 60 61 65 76 88 96 103 111 115 114 112 109 105 101 96 90 84 80 76 74
68 69 71 70 62 52 40 31 27 23 21 18 15 12 9 8 10 16 25 34 42 48 53 56 59 62 70 80 90 97 105 112 114 113 111 107 103 99 92 87 80 75 73
67 68 70 70 65 55 44 33 28 24 22 19 17 15 12 11 11 15 20 28 35 42 48 52 56 59 65 73 83 91 99 107 113 113 112 109 106 102 97 90 81 77 75
66 67 69 70 67 58 48 37 31 26 23 20 17 14 12 11 12 14 18 23 29 36 42 47 51 55 59 66 75 84 93 102 110 113 112 111 108 105 101 94 86 81 76
65 66 67 69 68 62 53 42 34 29 24 19 16 12 10 9 10 12 16 20 24 30 36 41 46 50 54 61 69 78 87 98 107 112 113 112 110 108 105 100 92 85 79
64 65 66 68 69 65 56 47 37 31 25 19 15 10 7 5 7 8 11 16 21 26 31 36 40 45 50 56 65 74 82 92 102 109 112 112 110 109 107 102 99 91 84
63 64 65 66 68 66 58 50 40 33 26 20 14 10 7 3 1 4 7 12 17 21 26 31 36 40 45 52 60 69 77 87 97 107 110 111 109 108 107 103 100 94 86
61 62 63 65 66 65 60 51 42 34 26 20 15 12 8 5 3 3 5 9 13 18 22 27 31 36 42 49 57 65 73 82 92 103 108 108 107 104 104 103 101 97 87
60 60 61 62 64 64 61 54 44 35 28 21 16 13 11 8 6 5 5 7 10 14 19 24 28 33 40 47 54 61 68 75 85 96 104 105 104 102 100 99 97 94 89
59 59 60 60 62 63 61 55 47 38 30 22 17 14 12 11 9 7 6 6 7 11 16 21 26 32 39 46 53 59 64 70 78 89 99 102 100 96 94 93 92 88 85
58 58 59 59 59 60 60 56 49 41 32 23 18 15 13 12 11 9 8 7 6 9 13 18 25 31 39 46 52 56 60 65 72 82 93 98 98 93 89 88 86 84 81

GEFSMA_500_meanwind_036.txt.gz
Wind_Speed
80 85 92 99 105 108 108 104 98 93 88 85 84 84 85 87 90 94 99 103 107 110 111 109 106 103 100 97 93 89 86 82 78 75 71 69 67 64 61 58 55 52 52
85 91 98 103 104 102 96 89 85 82 81 81 81 81 81 82 83 85 88 92 96 101 106 109 109 108 105 103 100 96 92 88 84 80 76 73 71 69 66 62 58 54 52
90 96 101 102 98 91 85 82 81 81 81 81 81 80 80 80 81 82 84 86 88 92 97 103 107 109 109 107 105 102 99 95 91 86 82 78 75 73 70 66 62 58 55
94 99 100 96 89 83 80 80 80 80 79 79 79 78 78 78 79 80 81 83 85 88 91 96 101 106 109 110 110 107 104 101 97 92 88 84 79 76 74 71 66 62 59
96 98 95 88 82 79 78 79 78 77 77 75 72 69 68 69 71 74 77 80 82 84 88 92 97 103 108 111 113 112 109 106 103 98 94 89 84 81 78 75 71 67 63
96 95 89 82 79 77 77 76 75 75 74 71 65 61 59 60 62 65 70 75 79 82 85 90 95 101 107 111 114 115 114 112 108 104 100 95 90 86 82 79 76 71 67
94 91 83 78 76 76 75 75 76 73 69 66 61 56 52 52 54 57 62 68 74 79 83 87 93 98 104 109 114 117 118 116 114 110 105 100 95 90 87 83 80 76 71
92 86 79 76 75 74 73 75 75 71 65 62 59 55 51 45 44 47 53 60 69 76 81 85 90 95 100 107 113 118 121 120 118 115 111 106 101 95 91 87 84 80 75
88 82 76 75 74 74 74 75 74 68 62 56 54 53 51 46 38 34 41 51 62 72 79 82 85 90 95 103 110 117 122 124 123 120 116 111 106 100 95 91 88 84 79
84 79 75 74 73 73 74 75 71 65 60 53 48 46 45 45 40 28 27 37 52 66 76 80 82 85 90 97 105 113 120 125 125 124 120 115 110 105 99 95 92 88 83
81 76 73 73 72 73 74 73 68 62 57 51 46 42 38 36 36 30 20 24 39 56 70 77 78 79 83 89 97 106 115 122 126 126 124 119 115 109 104 99 96 92 88
78 74 72 72 72 72 73 71 66 61 54 48 43 39 36 33 30 28 21 16 26 44 60 71 75 76 78 82 88 96 107 116 123 126 125 122 118 114 108 103 99 95 91
76 72 71 71 71 72 73 70 64 59 52 45 40 36 33 30 28 25 21 15 17 31 49 64 72 74 76 78 82 87 97 107 116 123 126 124 121 117 111 106 102 98 94
75 71 70 70 70 72 72 69 64 59 51 44 39 35 31 28 25 23 21 16 14 23 39 55 67 72 74 75 76 79 87 97 107 117 124 125 123 119 115 109 105 101 97
74 70 70 70 70 71 71 68 63 58 50 43 38 34 30 27 24 22 20 17 14 19 31 47 60 68 71 72 71 72 77 86 97 109 119 123 123 121 117 112 108 104 99
73 69 69 69 69 70 69 67 63 58 50 43 37 33 29 26 22 21 19 17 15 17 26 40 54 64 68 69 67 66 67 75 87 100 112 120 122 121 119 115 110 106 102
72 69 68 68 68 69 68 66 62 57 49 42 37 33 29 25 21 19 18 17 16 17 23 34 47 58 64 66 65 62 61 66 78 91 105 115 120 121 120 117 113 108 104
72 68 67 67 67 68 67 65 61 55 48 42 37 34 30 26 22 19 17 16 15 16 20 29 40 52 60 63 62 60 58 60 69 83 97 110 117 120 121 118 115 110 106
71 67 66 66 66 67 66 64 60 54 47 42 38 34 31 27 23 20 16 15 14 15 17 24 34 45 54 59 60 59 56 56 62 75 90 104 113 118 120 119 116 112 108
70 66 65 65 65 66 65 63 59 53 46 41 38 35 32 28 24 21 17 14 12 13 15 20 29 39 47 54 57 56 55 53 57 69 83 98 109 115 118 118 116 112 108
69 65 64 64 63 64 64 62 58 54 47 41 38 35 32 29 25 22 19 15 11 10 12 16 24 33 41 48 52 53 52 51 53 63 77 92 104 111 116 117 116 113 108
69 64 63 62 62 62 62 62 58 54 47 41 37 35 32 29 26 24 21 17 13 9 8 12 19 27 35 41 47 49 50 50 51 60 73 86 100 108 113 115 115 112 108
69 64 62 61 60 60 60 60 57 52 47 40 35 33 31 29 27 25 22 19 15 11 6 8 15 22 29 36 41 44 46 46 49 56 68 81 95 103 110 113 113 111 107
69 64 60 59 59 59 58 58 57 52 46 40 34 31 29 28 27 25 23 20 17 12 7 4 10 17 24 31 36 40 42 43 47 54 65 77 90 99 106 110 111 110 105
70 64 60 58 58 58 57 56 55 53 47 40 34 30 28 27 26 25 23 21 18 14 9 3 6 13 21 27 32 36 38 41 46 53 63 74 85 95 102 107 109 108 104
70 64 59 57 56 56 56 55 53 52 47 40 35 31 28 26 26 25 24 22 19 16 11 5 2 9 16 23 29 33 36 41 46 53 62 72 81 92 99 104 105 106 103

GEFSMA_500_meanwind_042.txt.gz
Wind_Speed
56 59 61 64 68 72 77 82 87 93 99 103 105 104 101 98 95 93 92 91 91 92 95 100 108 117 122 122 118 112 108 104 99 95 90 85 81 78 75 72 67 63 59
56 59 62 65 70 74 79 85 91 96 100 101 99 96 92 90 89 89 89 88 88 89 90 93 98 105 115 122 124 121 116 111 106 102 97 92 87 83 79 76 73 68 63
56 59 63 67 71 76 82 88 94 97 98 95 91 87 85 84 83 82 81 80 81 83 87 90 94 98 104 113 121 124 122 118 113 108 104 99 93 89 84 80 77 73 68
57 61 64 69 73 79 85 91 95 95 93 89 84 81 79 78 76 75 73 71 70 72 77 84 91 95 98 104 112 120 125 123 119 114 110 105 100 94 89 85 82 78 73
60 63 66 71 76 81 88 92 94 92 88 83 80 77 74 73 71 69 67 65 63 63 66 71 81 91 97 99 104 112 120 124 123 119 115 111 106 100 95 90 86 82 78
62 65 69 73 78 84 89 92 90 87 83 80 78 75 71 69 67 64 62 60 59 58 60 63 69 80 91 98 101 106 114 121 124 123 120 116 111 106 101 95 91 86 82
65 67 71 75 81 86 90 90 87 83 79 78 76 72 67 64 62 59 57 56 56 55 55 58 63 70 81 93 100 103 110 117 123 125 124 121 116 112 106 101 96 91 86
68 70 73 78 83 87 89 87 84 80 77 76 75 73 67 59 54 52 51 52 52 51 50 52 58 65 73 85 96 102 107 114 121 126 127 125 120 116 111 106 101 95 90
70 72 75 80 84 87 87 84 81 78 75 73 73 72 68 61 53 45 43 44 46 46 45 44 50 59 69 77 89 99 105 113 120 125 127 127 124 120 115 110 105 100 95
72 74 77 81 85 86 85 81 78 76 75 72 69 67 65 61 56 47 37 36 39 40 40 38 41 50 63 74 83 95 104 111 118 124 127 129 127 123 119 115 109 104 99
74 75 78 82 84 85 82 78 75 74 73 71 67 63 59 56 54 51 42 34 32 34 36 35 33 40 55 69 79 89 101 109 116 123 127 129 129 126 122 118 113 109 103
75 77 79 82 84 83 79 76 73 72 71 69 66 62 57 53 50 48 44 37 31 28 30 31 30 32 44 61 75 85 96 106 114 122 127 130 131 129 126 122 117 113 107
76 77 79 82 83 81 77 74 71 70 69 67 63 59 55 52 50 48 44 39 33 27 26 27 28 28 36 51 68 81 91 102 111 119 126 131 133 132 129 125 121 116 111
77 78 79 81 81 79 75 72 70 68 67 65 61 57 52 50 49 48 45 42 35 27 24 24 26 27 30 42 59 75 86 97 106 115 123 130 133 133 131 127 123 118 114
77 78 79 80 80 78 74 70 68 67 66 63 59 54 51 48 47 46 45 43 39 30 20 22 25 26 27 34 49 66 80 90 100 109 118 126 131 133 132 128 125 120 116
78 78 79 80 79 76 72 69 67 65 64 62 57 52 49 47 45 45 44 42 40 34 23 19 23 25 25 29 41 58 72 83 93 102 110 119 127 131 132 130 126 122 118
77 78 78 79 78 75 72 68 65 64 62 60 56 51 47 45 44 43 43 41 40 36 28 20 21 23 23 27 36 50 64 76 85 93 102 111 120 127 131 131 128 124 120
77 78 78 78 77 74 71 67 64 63 61 59 54 49 45 43 42 42 41 40 39 36 31 23 19 20 21 23 31 44 57 68 77 85 93 102 112 121 127 130 129 126 122
76 77 77 77 76 73 70 66 63 62 60 58 54 48 44 41 40 40 40 39 37 35 32 26 19 19 18 20 26 38 51 62 70 77 84 93 103 113 122 128 129 127 124
75 76 76 76 75 72 69 65 63 61 59 57 53 48 43 40 39 39 38 38 36 33 31 27 21 18 17 17 23 34 46 56 63 70 76 84 94 104 114 123 127 127 125
75 75 75 74 74 71 68 64 61 60 58 56 53 48 43 40 38 38 38 37 36 33 30 27 22 17 15 15 21 31 42 52 58 64 70 77 85 96 107 117 125 127 126
74 74 74 73 72 70 66 63 61 60 58 56 53 48 43 39 37 37 37 36 35 33 30 27 23 18 13 13 19 29 39 48 54 59 64 69 77 86 97 108 118 124 126
73 73 72 71 71 69 66 61 59 58 57 56 53 48 42 39 36 35 35 35 34 32 30 26 22 17 12 11 18 27 37 45 51 55 59 62 70 77 88 100 111 120 125
71 71 71 70 69 68 65 60 57 56 56 54 52 48 42 38 36 33 32 33 33 31 29 25 21 16 11 10 16 26 35 43 49 52 54 56 63 70 81 92 104 115 122
69 69 70 68 67 66 64 60 57 55 54 53 51 49 43 38 35 32 31 31 31 30 29 25 21 15 10 9 16 25 34 41 46 49 51 52 56 63 74 85 96 107 117
68 68 68 67 65 64 63 60 57 54 52 51 49 48 44 39 35 32 30 30 30 29 27 24 20 14 8 8 15 24 33 39 44 46 48 49 52 58 66 78 89 100 110

GEFSMA_500_meanwind_048.txt.gz
Wind_Speed
39 41 42 43 44 45 47 49 51 53 55 58 60 63 66 69 73 77 82 87 92 97 101 104 105 105 105 105 107 109 112 115 117 117 115 111 107 103 100 95 91 86 82
41 43 44 45 47 48 50 52 54 56 58 61 64 66 69 73 77 82 87 92 97 101 103 103 102 99 96 94 96 100 105 110 116 120 121 119 116 111 107 103 98 92 88
43 44 46 47 48 50 52 55 57 59 62 64 67 70 73 77 81 86 91 95 98 100 101 100 96 92 87 85 86 90 95 102 108 115 122 125 123 119 114 109 104 99 93
45 46 47 49 50 52 54 57 60 62 65 67 70 72 76 80 85 89 93 96 97 98 96 93 88 83 79 77 78 80 85 91 99 107 116 125 128 126 121 116 111 105 99
47 48 49 51 52 54 56 59 62 65 67 69 72 75 78 83 87 91 93 94 95 94 91 86 81 76 73 71 71 73 77 82 90 98 108 118 128 131 128 122 117 111 105
50 50 51 53 54 56 58 61 64 67 69 71 74 77 81 85 88 90 91 91 90 88 84 80 75 71 67 66 65 67 70 76 82 90 100 111 122 131 132 128 122 117 111
52 53 53 54 56 58 60 62 65 68 71 74 76 78 81 84 87 87 87 86 85 82 79 75 71 67 64 61 59 61 65 70 76 84 93 104 115 126 132 132 127 122 116
55 55 56 56 58 59 62 64 67 70 73 77 79 82 83 83 85 83 82 81 79 77 74 72 68 65 61 57 53 53 58 64 71 78 87 98 109 119 128 132 131 126 121
57 58 58 59 60 62 64 66 69 72 75 79 82 85 86 86 86 81 76 75 73 71 69 68 66 63 59 54 50 47 50 58 66 73 81 92 103 113 122 130 132 129 124
59 60 60 61 62 64 65 68 70 73 77 80 83 85 87 87 88 83 74 70 67 65 64 64 63 61 58 53 48 43 43 51 60 69 77 87 99 109 117 125 130 130 127
60 61 62 63 64 65 67 69 72 75 78 81 83 84 85 85 85 84 76 67 62 60 60 60 61 60 56 52 47 41 39 43 52 64 73 83 94 104 113 120 127 130 129
62 62 63 64 65 67 68 70 73 76 80 82 84 83 83 82 81 80 77 69 61 56 55 56 58 59 55 51 46 40 35 37 46 58 70 79 89 99 109 116 123 130 131
63 63 64 65 67 68 69 71 74 78 80 82 83 81 80 80 79 77 75 70 63 55 52 52 56 57 55 50 45 40 34 33 41 53 66 76 86 95 105 113 120 128 131
64 64 65 67 68 68 70 72 75 78 80 82 81 79 78 77 76 74 73 70 64 56 50 50 52 55 54 50 46 40 33 30 36 49 62 73 82 92 101 110 118 125 131
64 66 67 68 69 70 71 73 76 78 80 81 80 77 76 75 73 71 70 68 66 60 51 48 50 52 53 50 46 42 34 30 32 45 59 70 80 90 99 107 116 124 130
65 67 68 69 70 71 72 74 76 79 80 80 78 75 73 73 70 69 67 65 63 61 55 49 48 49 50 49 46 42 36 30 29 39 55 69 78 88 97 105 114 121 128
66 68 69 70 71 72 73 74 76 78 79 78 77 74 72 71 69 67 65 63 60 59 56 49 48 48 48 47 45 42 37 32 29 35 51 66 76 86 96 104 113 121 128
67 69 69 70 71 72 73 74 76 78 78 77 75 72 70 69 67 65 64 61 58 57 55 51 47 47 46 46 43 41 38 34 29 32 45 63 75 85 95 103 112 119 127
68 69 70 70 71 72 73 74 75 76 76 75 73 70 68 68 65 63 62 60 57 54 53 51 48 46 45 44 42 39 36 33 30 29 40 58 72 83 93 101 110 119 126
69 70 71 70 70 71 72 73 74 74 74 74 71 68 67 66 64 62 60 58 56 53 51 50 48 45 44 43 42 39 34 32 29 28 35 51 68 81 91 100 107 116 125
69 69 69 69 68 68 69 71 72 72 72 71 69 66 64 63 62 61 60 59 55 52 50 50 48 45 44 43 42 39 34 30 27 26 31 45 62 77 88 97 105 113 122
68 68 67 67 65 65 68 69 70 70 70 69 67 64 62 62 61 59 58 57 55 52 50 49 48 46 44 43 41 38 33 29 25 25 28 39 56 70 83 93 101 109 119
66 66 66 63 62 63 65 67 67 67 67 67 65 63 61 60 59 57 56 55 52 50 49 49 47 45 43 41 39 36 31 27 23 22 24 33 48 62 76 87 97 105 114
63 63 61 59 59 61 63 63 64 65 65 64 63 61 59 58 57 56 54 52 50 48 47 46 45 43 42 40 37 33 28 23 20 19 20 28 41 54 68 80 92 101 109
59 58 57 56 57 58 59 60 60 62 62 61 60 59 58 56 55 54 53 51 48 45 44 43 43 42 39 37 34 30 24 20 16 15 18 26 37 48 59 72 84 95 103
56 55 54 54 54 55 57 57 58 59 59 58 58 56 55 54 53 52 51 49 47 43 41 40 40 39 37 35 31 27 21 16 13 12 17 25 34 44 52 64 76 87 97

GEFSMA_500_meanwind_054.txt.gz
Wind_Speed
27 29 31 33 34 36 37 38 39 40 41 42 44 45 46 47 48 49 50 51 53 54 55 57 58 60 62 64 65 67 70 72 75 77 79 82 83 85 87 88 89 89 89
30 32 33 36 38 40 41 42 42 43 43 44 45 47 48 50 51 52 54 55 56 57 59 60 62 64 66 68 70 72 74 76 78 80 82 84 87 90 92 94 96 97 97
34 35 37 38 41 43 45 46 47 46 47 47 48 49 51 52 54 56 57 58 60 61 63 64 66 68 70 72 73 75 77 80 82 84 86 88 91 93 95 98 101 104 105
37 38 40 42 44 46 48 50 51 51 50 50 51 52 53 55 57 58 60 62 63 65 67 68 70 71 73 75 76 78 80 82 84 87 89 92 93 96 98 101 105 109 112
40 41 43 45 47 49 51 53 54 54 53 53 53 54 55 57 58 60 62 64 66 68 69 71 72 74 75 76 78 79 82 84 87 89 92 94 96 98 101 103 106 111 116
43 45 46 48 49 51 54 56 57 57 56 55 55 55 56 58 59 61 63 66 68 69 71 73 74 75 76 76 78 80 83 85 88 91 93 96 97 99 99 100 104 110 117
47 48 50 51 53 54 57 59 60 59 58 57 57 57 57 59 60 62 65 67 69 71 72 74 75 76 76 77 79 81 84 86 89 90 92 94 94 94 93 94 98 104 113
50 52 53 54 56 58 60 62 62 61 60 59 59 59 60 60 61 63 65 68 70 71 73 75 76 77 78 79 80 82 84 86 87 88 88 88 87 86 85 87 90 96 105
54 55 56 58 59 61 62 64 64 63 61 60 60 61 62 63 64 65 66 68 71 72 74 75 77 79 80 81 82 83 83 84 84 83 82 81 79 78 77 78 81 87 95
57 58 59 60 62 63 64 66 65 63 62 61 61 62 63 65 66 66 67 69 70 72 74 76 78 80 82 83 83 83 82 81 80 78 75 74 71 70 68 69 72 77 86
60 61 62 63 64 65 66 67 65 64 63 62 63 63 64 65 67 67 67 69 70 73 75 76 78 80 82 83 83 82 80 78 75 72 70 67 65 63 61 60 63 67 77
62 63 64 66 66 67 67 67 65 64 64 64 64 64 65 66 68 69 68 69 70 71 74 76 78 80 81 82 81 80 78 74 71 68 65 62 60 59 57 55 57 61 70
64 64 66 67 67 67 67 67 66 66 65 64 65 66 66 67 69 70 70 70 69 70 72 75 78 80 80 80 79 77 74 70 67 64 61 59 57 56 54 52 54 58 66
66 66 67 67 68 67 67 67 67 66 65 65 66 67 67 68 69 71 71 71 71 70 71 73 76 78 79 78 77 76 71 67 63 60 58 56 54 53 51 50 51 55 63
66 66 66 67 67 67 68 68 67 66 66 66 67 67 67 68 70 71 72 73 72 71 70 71 74 75 75 75 74 73 69 64 61 58 55 53 52 49 47 46 48 54 61
66 66 66 67 67 68 68 68 67 67 67 67 67 67 68 68 69 71 72 72 72 73 72 71 72 72 72 72 71 69 66 62 59 56 54 52 50 46 44 43 46 52 60
65 65 66 67 68 68 68 67 67 67 66 67 66 67 67 68 69 70 71 71 72 73 74 71 70 70 69 69 67 65 62 60 58 55 53 51 48 45 42 41 44 50 58
64 65 66 67 68 67 67 66 66 66 66 66 66 67 66 67 68 69 70 70 71 72 73 72 70 68 66 65 64 61 59 58 56 53 51 50 48 44 40 40 43 50 58
65 65 66 66 66 66 66 65 65 65 65 65 65 65 65 66 67 68 69 69 70 71 71 72 69 66 63 62 61 59 57 56 54 52 50 48 47 43 39 39 43 50 59
64 64 64 65 64 64 64 64 64 64 63 63 63 63 64 65 66 67 67 68 69 69 69 70 68 65 62 61 60 58 56 54 52 51 49 47 45 40 38 38 43 51 60
61 61 61 62 62 62 62 62 62 61 61 61 61 62 63 64 65 66 66 66 67 67 67 68 66 64 61 60 58 57 55 52 49 49 48 45 43 38 36 37 42 52 62
57 57 59 60 60 59 59 59 59 59 59 60 60 61 62 63 64 64 65 65 65 65 66 66 64 62 60 58 57 55 54 51 47 46 47 42 41 37 34 35 41 53 63
56 57 57 57 56 56 57 58 58 58 57 57 59 59 60 61 62 62 63 62 61 62 63 63 61 60 58 56 55 53 51 49 46 43 44 40 38 35 32 33 40 53 65
55 55 55 55 56 56 57 57 57 57 56 57 57 58 59 60 60 61 60 59 58 58 59 59 58 57 55 54 53 52 49 46 42 41 41 38 35 33 29 29 38 53 65
54 55 55 55 55 56 56 57 57 56 56 56 57 57 57 58 58 59 59 57 56 56 56 55 54 54 53 51 51 50 47 44 40 38 38 36 32 29 25 26 35 52 66
55 55 56 56 56 56 56 57 56 56 56 55 56 55 56 57 57 57 57 55 54 54 53 52 51 50 49 48 48 47 45 41 39 36 35 33 29 26 21 23 33 50 66

GEFSMA_500_meanwind_060.txt.gz
Wind_Speed
24 25 26 27 28 29 30 31 33 34 35 36 37 38 39 40 40 41 41 42 43 45 46 48 49 51 52 52 53 54 55 55 56 56 57 58 59 60 61 62 63 64 65
29 29 30 31 32 33 34 36 37 38 39 40 41 42 44 45 45 45 45 45 45 46 47 49 50 51 52 53 54 55 56 57 58 59 60 61 61 62 64 65 66 66 67
33 34 34 36 37 37 39 40 41 42 43 44 45 46 47 49 50 50 50 49 49 49 50 50 51 52 53 54 55 56 57 58 59 60 62 63 64 65 66 67 68 69 70
37 38 39 40 41 42 43 44 45 46 47 48 49 50 51 53 54 54 54 53 52 52 52 53 53 54 55 55 56 57 58 59 60 62 63 64 65 66 68 69 70 71 73
42 43 43 44 45 46 47 48 49 50 51 52 53 53 55 56 57 57 57 57 56 55 55 55 55 56 56 57 58 59 60 61 62 64 65 66 67 68 70 71 72 73 75
46 47 47 48 49 50 51 52 54 54 55 56 57 57 58 59 60 60 60 59 58 58 58 57 57 58 58 59 60 60 61 62 64 65 67 68 69 70 71 72 73 75 76
50 51 52 52 53 54 54 56 58 59 60 61 61 62 62 62 62 62 61 60 60 60 60 60 60 60 60 60 61 62 63 64 65 67 68 69 70 71 72 73 74 75 77
53 54 55 56 57 58 58 59 61 63 63 64 65 66 65 64 63 62 60 60 60 61 61 61 61 61 62 62 63 63 64 65 66 67 68 69 70 71 72 73 74 75 76
55 57 58 59 60 61 62 63 64 66 67 67 67 67 67 66 65 61 59 59 59 60 60 61 61 62 63 64 64 64 66 67 67 68 68 68 69 70 72 73 74 76 77
57 59 60 61 63 64 65 66 68 69 69 69 68 67 67 66 64 62 60 59 59 60 60 61 62 63 64 65 65 66 67 67 68 68 68 69 70 71 72 73 75 77 79
59 60 62 63 65 66 67 68 70 70 70 69 68 67 66 64 63 62 61 60 61 61 61 62 63 64 65 66 66 67 67 68 68 69 69 69 70 71 73 75 77 79 81
60 61 63 65 66 68 69 70 71 71 70 69 68 67 65 64 63 63 62 62 63 63 63 64 65 66 67 67 67 67 68 68 68 69 70 70 72 73 74 76 78 80 82
61 62 64 66 67 69 70 71 71 70 70 69 67 66 65 64 65 64 64 64 65 64 65 65 67 68 69 68 68 68 68 69 69 70 71 72 74 75 76 78 79 81 83
62 63 65 66 68 69 70 70 70 69 69 68 67 66 67 66 66 66 67 67 67 67 67 67 68 70 70 69 69 69 69 70 70 71 72 74 75 76 77 79 80 81 83
63 64 65 66 67 67 68 69 68 68 68 68 68 68 68 68 68 68 69 69 70 69 68 67 69 69 70 69 69 69 70 70 71 72 73 74 76 77 78 79 80 80 81
63 64 65 65 65 66 67 68 68 68 68 68 67 68 68 68 68 69 70 70 70 70 68 66 67 68 69 69 69 69 70 70 71 72 74 75 76 77 77 78 79 79 79
62 62 63 64 64 65 66 66 66 67 67 66 67 68 68 68 68 69 69 69 69 69 68 66 67 68 68 69 69 69 70 71 72 73 74 75 76 76 77 77 76 76 75
60 61 61 62 63 64 64 65 65 66 67 67 67 68 67 68 67 68 68 67 67 68 68 66 66 67 67 68 68 69 70 71 71 72 73 73 73 74 74 73 73 71 70
59 60 61 61 62 63 64 65 65 66 66 66 66 66 66 66 66 67 67 66 66 67 67 66 65 66 67 68 69 69 70 70 71 71 71 71 71 70 70 69 69 68 67
58 59 60 60 62 63 63 63 64 65 66 65 65 64 64 65 66 66 66 66 66 67 67 67 65 65 66 67 69 69 69 69 68 68 68 68 67 67 66 66 65 64 63
58 59 60 61 62 63 63 63 64 65 64 64 63 63 64 65 65 65 65 66 66 67 66 66 65 66 65 67 68 69 69 67 66 65 66 65 65 63 62 62 61 60 60
59 59 59 60 61 61 62 63 64 64 63 62 62 64 64 64 64 64 65 66 66 66 65 65 65 65 64 66 67 67 67 66 64 61 64 61 61 60 59 58 57 57 56
59 59 59 60 59 59 60 61 62 62 62 62 62 64 64 63 64 65 65 65 64 64 64 64 64 63 63 64 65 65 64 63 61 59 61 59 58 58 56 55 55 55 54
58 59 59 59 58 58 59 61 62 62 62 61 62 62 62 62 62 62 62 62 61 61 61 62 61 61 62 62 63 62 61 60 58 55 58 58 55 54 53 52 53 53 52
57 58 58 58 58 58 60 61 62 62 61 60 60 60 60 59 59 59 59 58 58 57 58 59 59 59 59 59 59 59 58 58 55 51 54 57 54 52 50 49 50 51 49
57 57 56 57 58 58 59 60 61 61 60 60 59 58 57 57 57 57 56 55 54 55 56 56 56 56 56 56 56 56 56 56 53 50 50 53 52 52 48 45 47 47 47